Temp
16 16 17 18 14 12 13 15 17 18 18 19 20 19 18 18 18 16 17 17 16 16 14 14 14 15 15 16 15 12 12 13 14 13 13 11 10 10 12 12 12 11 10 11 12 13 13 13 12
15 16 17 16 12 12 12 14 18 18 19 20 20 19 18 17 17 17 15 16 16 15 14 14 14 15 15 15 13 13 12 11 12 11 12 10 11 11 12 12 12 11 10 11 12 12 12 12 12
15 15 16 12 11 12 13 15 18 20 20 20 19 18 17 16 17 17 16 16 15 15 14 14 14 15 15 15 13 12 11 12 11 12 12 11 12 12 12 12 12 10 10 11 12 12 12 12 12
14 15 14 11 12 12 14 16 18 18 20 20 19 16 16 16 17 16 16 16 15 14 14 14 14 15 15 14 12 11 12 11 11 12 11 11 12 12 12 12 12 11 10 10 12 12 12 12 12
13 14 10 11 12 13 14 16 17 17 18 19 19 15 16 15 16 16 16 15 15 14 13 14 14 14 15 12 12 11 11 11 12 12 12 12 12 12 12 12 12 12 11 11 12 12 12 11 11
12 12 9 11 12 14 14 17 17 17 19 18 17 15 15 15 16 16 16 15 15 14 13 13 14 14 14 13 11 11 11 12 12 12 12 11 12 12 11 12 12 12 11 11 11 12 12 11 11
10 8 10 11 13 14 14 17 17 17 17 18 19 14 15 15 15 16 15 15 14 14 13 13 13 13 13 12 11 10 10 11 11 12 11 11 12 12 11 12 12 12 12 11 12 12 11 11 11
12 9 11 11 13 14 15 16 18 17 17 18 18 13 14 15 15 14 15 14 14 13 13 13 13 13 12 12 11 11 10 11 11 12 11 11 12 11 11 12 12 12 11 12 12 11 11 11 10
11 9 9 13 14 15 14 14 16 17 17 17 17 17 17 17 14 14 14 14 13 13 13 13 12 12 13 13 12 10 10 12 11 11 11 11 11 11 11 12 11 11 11 11 11 11 11 10 10
10 8 10 13 13 13 14 14 14 16 16 15 16 15 16 16 15 14 13 13 13 13 12 12 13 12 12 12 12 10 11 11 12 11 11 11 11 11 10 11 11 11 10 10 10 10 10 10 9
9 8 11 11 12 13 14 15 15 14 14 14 14 15 15 15 15 15 14 14 13 13 13 12 13 12 11 12 11 10 11 11 12 11 11 10 11 11 10 11 11 10 10 10 10 10 9 9 9
9 10 9 10 11 12 12 14 14 14 14 14 15 16 15 15 15 16 14 14 13 13 13 12 12 12 11 11 11 11 10 11 11 11 10 10 11 10 11 11 10 10 10 10 10 10 9 9 9
8 8 9 10 11 12 13 13 13 14 14 15 15 14 15 15 14 14 14 14 14 14 13 13 13 12 11 12 12 11 10 10 11 11 11 11 11 11 10 10 10 10 10 9 9 9 9 9 9
7 7 8 10 11 12 12 12 13 13 14 14 14 14 14 14 15 14 14 14 14 14 14 13 13 12 12 12 12 12 11 10 10 10 11 11 11 11 11 10 10 10 10 9 9 9 9 9 9
8 7 7 9 10 11 12 11 11 13 13 13 13 13 13 13 14 14 15 14 14 14 14 13 13 12 12 12 12 12 12 11 10 9 10 11 11 10 10 10 10 10 10 9 9 8 8 8 8
7 7 6 8 9 10 11 9 11 11 12 12 13 13 13 14 14 14 14 14 14 14 13 13 13 13 13 13 13 12 12 12 11 10 10 10 11 10 10 10 10 9 9 9 8 8 8 7 8
4 6 6 7 7 7 8 8 10 11 11 11 12 13 13 14 14 14 14 14 14 14 14 13 13 13 13 13 13 13 13 13 12 10 10 10 10 10 10 10 10 9 9 7 7 7 7 7 7
5 5 5 6 6 6 6 6 7 10 9 10 11 12 13 13 14 14 15 15 15 14 14 13 13 13 13 13 13 13 12 12 12 11 11 10 10 10 10 9 9 9 8 8 7 7 7 8 7
5 5 4 5 7 6 6 6 7 8 7 8 10 10 11 11 12 13 13 15 15 14 14 14 13 13 13 13 13 12 12 12 12 12 11 10 10 9 9 9 9 9 8 8 8 7 7 7 7
6 5 4 5 6 6 6 6 7 6 5 5 5 5 6 9 11 12 13 12 12 13 15 14 14 13 13 13 13 12 13 12 13 12 11 11 10 10 10 10 10 9 8 8 8 7 7 7 7
5 5 4 5 5 6 5 8 7 7 6 5 4 3 5 4 6 9 10 11 12 12 11 12 13 13 13 13 13 12 11 11 12 12 12 11 11 10 10 10 10 10 9 9 8 8 7 7 7
5 5 5 5 4 4 4 4 7 5 5 4 3 2 2 2 5 6 8 9 10 11 11 12 11 12 13 13 13 13 12 12 12 12 13 12 12 11 10 10 10 10 9 9 8 8 8 8 7
5 5 5 5 5 3 5 1 6 3 3 2 2 1 1 1 1 3 5 8 8 9 10 10 10 10 11 12 13 12 12 11 11 12 12 11 11 11 11 10 10 10 10 9 9 8 8 8 8
4 5 3 3 2 -1 5 3 3 2 2 2 2 1 0 -0 -0 1 2 5 8 9 9 10 10 11 11 11 11 12 12 12 11 11 11 11 11 11 11 11 10 10 10 9 9 9 9 8 8
3 1 -3 -0 -1 1 4 4 3 3 2 1 1 0 -0 -1 -1 -0 1 2 5 8 10 9 9 10 11 11 11 11 11 12 12 12 12 11 11 11 10 10 10 10 10 10 9 9 9 9 9
4 4 3 -1 2 1 4 5 4 4 3 2 1 -0 -1 -1 -2 -2 -1 -0 -0 4 6 8 8 10 9 9 10 11 11 11 12 12 12 12 11 11 11 11 10 10 10 10 10 9 9 9 9
3 3 4 2 -0 1 3 3 3 3 2 1 1 -0 -1 -2 -2 -3 -2 -1 -1 -0 2 5 6 9 10 9 9 10 11 11 11 12 12 10 10 11 11 11 11 10 10 10 10 10 10 9 9
3 4 1 -0 0 0 1 2 4 2 1 1 0 -1 -2 -2 -2 -2 -3 -2 -1 -1 -1 2 3 5 9 10 11 11 12 12 11 10 10 10 10 10 10 11 11 10 10 10 10 10 10 9 9
3 0 4 3 3 1 2 1 2 1 0 0 -0 -1 -2 -2 -2 -2 -3 -3 -2 -1 -1 1 2 3 7 9 12 12 12 11 11 10 10 10 10 10 10 10 10 10 10 10 10 10 10 9 9
4 3 3 1 1 2 2 1 1 0 -0 -0 -1 -2 -2 -2 -2 -2 -2 -3 -3 -2 -1 0 2 3 4 6 9 11 10 10 10 10 10 9 9 9 10 10 10 10 10 10 10 10 10 10 10
Height
1518 1518 1519 1519 1529 1530 1533 1524 1514 1511 1507 1504 1505 1504 1505 1506 1509 1522 1510 1514 1518 1522 1526 1532 1536 1538 1539 1540 1542 1545 1546 1547 1550 1552 1553 1555 1558 1558 1561 1562 1563 1564 1565 1566 1567 1568 1569 1569 1569
1517 1518 1518 1519 1533 1539 1535 1519 1512 1508 1506 1505 1505 1506 1507 1508 1508 1508 1511 1515 1520 1522 1526 1532 1536 1538 1540 1541 1544 1546 1547 1549 1551 1553 1554 1557 1559 1561 1562 1564 1565 1566 1567 1568 1569 1570 1571 1570 1571
1515 1517 1518 1520 1529 1532 1530 1513 1508 1505 1507 1506 1507 1508 1509 1510 1510 1510 1512 1515 1520 1524 1528 1531 1536 1539 1541 1543 1544 1547 1549 1550 1553 1554 1556 1559 1561 1563 1564 1566 1566 1567 1569 1568 1571 1572 1573 1573 1574
1515 1517 1519 1523 1520 1517 1513 1507 1505 1504 1505 1506 1506 1511 1512 1511 1511 1513 1515 1516 1521 1525 1530 1533 1536 1540 1542 1544 1547 1548 1551 1554 1555 1557 1559 1562 1563 1565 1567 1568 1568 1569 1570 1571 1572 1574 1575 1575 1576
1515 1515 1523 1524 1516 1509 1508 1504 1504 1505 1505 1506 1507 1511 1512 1512 1513 1515 1517 1519 1522 1527 1532 1535 1537 1541 1543 1546 1548 1551 1554 1557 1558 1559 1560 1563 1565 1567 1568 1569 1571 1571 1573 1573 1574 1575 1576 1577 1578
1516 1516 1528 1525 1515 1507 1506 1505 1505 1505 1504 1505 1506 1510 1513 1513 1515 1516 1519 1523 1525 1528 1533 1536 1538 1542 1544 1547 1550 1554 1555 1557 1559 1561 1563 1564 1566 1568 1570 1571 1572 1574 1575 1575 1576 1577 1578 1579 1580
1514 1521 1523 1518 1512 1509 1505 1504 1505 1503 1504 1504 1503 1510 1512 1513 1515 1517 1520 1524 1528 1530 1533 1536 1539 1543 1545 1548 1551 1554 1557 1558 1560 1562 1564 1566 1568 1569 1571 1572 1574 1575 1576 1577 1578 1580 1581 1581 1582
1514 1517 1519 1517 1513 1510 1505 1503 1502 1501 1502 1502 1503 1507 1510 1510 1515 1518 1522 1526 1528 1531 1534 1536 1539 1543 1545 1549 1552 1555 1558 1559 1561 1563 1565 1567 1569 1570 1572 1573 1575 1577 1578 1578 1580 1581 1583 1583 1584
1514 1522 1524 1514 1512 1508 1506 1504 1502 1501 1502 1502 1503 1505 1505 1507 1515 1520 1523 1527 1529 1531 1534 1537 1540 1543 1546 1549 1551 1556 1558 1560 1562 1564 1565 1567 1569 1571 1573 1575 1576 1578 1579 1580 1581 1583 1584 1584 1585
1513 1521 1518 1511 1510 1510 1508 1507 1503 1503 1503 1503 1503 1504 1505 1508 1512 1519 1523 1526 1528 1531 1534 1537 1540 1543 1546 1549 1551 1554 1557 1559 1562 1564 1566 1567 1569 1572 1574 1575 1577 1578 1580 1581 1582 1584 1585 1586 1586
1513 1517 1512 1512 1511 1510 1507 1506 1506 1504 1506 1506 1506 1505 1506 1509 1512 1516 1523 1525 1528 1531 1534 1538 1540 1544 1546 1548 1550 1553 1556 1559 1561 1564 1565 1568 1569 1571 1574 1576 1577 1578 1579 1581 1583 1584 1585 1586 1587
1516 1513 1514 1513 1512 1510 1510 1508 1508 1508 1508 1507 1505 1507 1508 1510 1511 1512 1520 1525 1528 1531 1534 1537 1541 1544 1546 1549 1551 1553 1556 1558 1560 1563 1565 1567 1569 1571 1573 1576 1578 1579 1579 1581 1583 1584 1586 1587 1587
1518 1516 1514 1513 1511 1510 1510 1510 1510 1509 1509 1509 1508 1510 1512 1514 1516 1519 1523 1526 1529 1531 1533 1535 1539 1542 1544 1548 1550 1553 1555 1557 1560 1562 1564 1566 1568 1570 1573 1575 1577 1579 1580 1581 1582 1584 1585 1586 1587
1520 1518 1514 1512 1511 1511 1512 1511 1511 1511 1512 1512 1512 1514 1517 1518 1519 1521 1523 1525 1527 1530 1532 1535 1536 1539 1542 1545 1548 1551 1553 1556 1559 1561 1563 1565 1567 1569 1571 1573 1576 1578 1579 1581 1582 1583 1584 1585 1586
1519 1518 1514 1513 1510 1510 1511 1513 1514 1514 1513 1514 1515 1518 1519 1520 1521 1521 1522 1522 1525 1528 1531 1532 1534 1536 1539 1542 1545 1548 1551 1554 1557 1559 1561 1563 1566 1568 1570 1572 1574 1576 1578 1579 1581 1582 1582 1583 1584
1520 1520 1525 1518 1514 1514 1513 1519 1513 1515 1514 1514 1515 1516 1518 1520 1520 1521 1522 1523 1525 1526 1527 1528 1530 1532 1536 1538 1542 1545 1548 1551 1553 1556 1559 1561 1564 1566 1569 1571 1572 1574 1576 1577 1578 1579 1580 1581 1582
1529 1528 1528 1523 1521 1520 1518 1519 1512 1513 1515 1515 1515 1515 1515 1518 1518 1517 1519 1520 1522 1522 1524 1524 1527 1528 1531 1535 1538 1541 1544 1547 1550 1553 1556 1559 1562 1564 1566 1568 1570 1572 1573 1574 1576 1577 1578 1579 1579
1536 1535 1534 1532 1527 1522 1522 1522 1514 1511 1511 1512 1513 1514 1514 1515 1515 1514 1514 1516 1517 1519 1520 1523 1523 1525 1528 1531 1534 1537 1541 1543 1546 1549 1553 1557 1559 1561 1564 1566 1568 1570 1571 1572 1573 1574 1575 1576 1578
1537 1537 1539 1533 1529 1527 1525 1524 1519 1514 1509 1508 1511 1514 1513 1513 1512 1510 1509 1511 1512 1515 1517 1520 1522 1521 1523 1525 1527 1531 1534 1538 1542 1545 1550 1553 1555 1558 1561 1564 1567 1567 1567 1569 1571 1572 1572 1574 1575
1534 1536 1540 1533 1528 1527 1527 1525 1522 1520 1520 1517 1516 1516 1515 1512 1509 1508 1508 1508 1509 1512 1514 1516 1517 1520 1520 1521 1523 1527 1530 1533 1538 1542 1545 1549 1551 1554 1558 1560 1562 1564 1565 1566 1567 1568 1569 1571 1572
1539 1539 1540 1539 1532 1527 1529 1523 1524 1523 1522 1521 1520 1521 1518 1517 1513 1509 1507 1507 1507 1506 1508 1511 1515 1516 1518 1519 1520 1523 1523 1528 1531 1535 1540 1543 1547 1550 1553 1556 1558 1559 1561 1561 1563 1564 1565 1566 1568
1538 1537 1537 1536 1538 1539 1533 1541 1523 1526 1525 1525 1526 1523 1521 1517 1514 1511 1508 1506 1505 1504 1505 1504 1507 1511 1512 1514 1516 1518 1519 1522 1522 1528 1533 1537 1540 1544 1547 1550 1552 1554 1555 1556 1558 1560 1561 1562 1562
1539 1536 1537 1534 1534 1543 1536 1552 1529 1531 1528 1529 1528 1527 1525 1522 1518 1513 1509 1506 1505 1503 1501 1501 1501 1503 1507 1510 1511 1513 1516 1519 1521 1523 1527 1531 1536 1539 1541 1543 1546 1548 1549 1551 1553 1554 1556 1556 1557
1537 1536 1539 1541 1545 1568 1538 1546 1542 1544 1543 1535 1528 1526 1523 1519 1517 1512 1508 1504 1501 1500 1499 1498 1497 1499 1502 1505 1508 1509 1512 1514 1516 1519 1522 1524 1527 1532 1535 1537 1538 1540 1543 1544 1546 1547 1549 1549 1551
1541 1550 1583 1569 1573 1567 1540 1543 1548 1545 1544 1542 1534 1527 1523 1518 1513 1508 1504 1499 1496 1494 1494 1494 1494 1495 1496 1499 1502 1505 1508 1510 1511 1514 1516 1518 1521 1522 1526 1529 1533 1533 1534 1537 1539 1540 1541 1543 1543
1545 1546 1552 1583 1559 1562 1541 1539 1543 1544 1544 1542 1539 1533 1524 1517 1514 1508 1503 1498 1494 1490 1489 1489 1489 1490 1491 1492 1494 1498 1501 1504 1506 1509 1510 1512 1513 1516 1516 1522 1525 1527 1527 1529 1530 1532 1534 1535 1536
1548 1552 1551 1557 1569 1564 1548 1546 1548 1543 1544 1541 1538 1534 1528 1522 1514 1508 1502 1498 1492 1488 1485 1483 1483 1484 1486 1487 1488 1490 1494 1497 1500 1502 1503 1505 1507 1508 1512 1514 1517 1518 1519 1520 1522 1523 1525 1527 1528
1549 1550 1562 1566 1575 1575 1559 1552 1543 1546 1545 1543 1538 1535 1530 1524 1516 1509 1502 1496 1491 1487 1482 1480 1479 1478 1480 1481 1483 1484 1487 1490 1493 1497 1499 1500 1501 1503 1504 1507 1509 1507 1508 1511 1513 1515 1517 1517 1518
1553 1560 1550 1553 1555 1569 1563 1557 1551 1551 1550 1546 1542 1537 1531 1524 1517 1510 1502 1496 1490 1485 1482 1477 1476 1473 1472 1473 1476 1479 1481 1484 1487 1490 1493 1496 1497 1498 1498 1501 1501 1502 1502 1503 1504 1504 1507 1508 1508
1553 1555 1554 1567 1565 1558 1559 1554 1552 1551 1549 1546 1542 1537 1532 1526 1519 1512 1504 1496 1490 1485 1480 1475 1472 1471 1468 1468 1469 1472 1474 1478 1482 1485 1489 1491 1491 1493 1493 1493 1496 1497 1497 1496 1496 1497 1498 1498 1499
Wind_Speed
9 6 5 3 3 4 3 5 2 6 6 4 1 4 6 3 4 4 13 29 30 31 31 26 20 18 17 19 22 23 21 19 17 16 15 17 16 16 16 12 13 10 13 18 17 17 17 17 17
7 5 4 1 4 2 5 4 3 3 1 9 5 5 3 1 2 9 24 28 31 32 32 26 20 20 17 19 23 22 20 19 17 16 16 18 18 18 18 14 12 14 13 22 18 18 17 15 15
6 4 4 4 4 7 5 5 4 0 1 1 2 4 2 3 3 19 17 29 32 33 31 26 21 20 17 19 22 22 20 18 15 12 18 20 16 17 16 14 11 14 15 20 20 19 18 15 15
5 4 2 2 8 5 7 6 3 4 2 3 6 4 2 2 9 11 25 27 33 33 30 26 21 20 18 20 21 21 20 18 14 14 20 19 18 16 16 14 9 14 16 17 20 19 17 15 15
5 3 2 3 6 3 3 10 4 3 7 1 4 3 2 10 6 13 25 26 33 32 29 25 21 21 18 20 21 20 20 18 14 14 17 18 17 16 16 14 11 12 16 17 18 18 17 16 14
1 1 2 5 4 3 3 8 8 5 10 3 7 6 4 9 3 13 20 26 30 30 29 25 21 21 18 19 20 20 20 21 19 15 15 17 17 17 14 15 12 12 16 16 16 17 17 16 14
4 3 3 2 3 4 3 4 5 11 6 6 13 5 5 8 10 13 22 26 28 29 29 25 22 21 19 18 21 20 20 17 21 16 14 15 15 17 15 14 11 12 14 14 15 15 16 15 15
2 4 2 4 2 3 5 3 5 5 5 10 8 7 6 15 14 18 23 25 26 30 29 26 24 22 20 18 20 20 19 17 21 19 16 14 16 19 16 13 13 12 12 12 13 14 14 14 12
3 2 2 3 4 1 8 6 8 4 6 4 6 7 8 17 19 24 25 24 26 30 30 28 26 24 20 18 20 21 16 13 17 20 17 15 19 18 17 15 14 13 12 12 12 13 14 13 11
4 3 6 2 4 3 7 7 9 6 4 4 6 9 17 20 24 26 27 26 29 32 31 29 27 25 23 21 21 24 19 15 15 19 16 17 19 19 18 16 15 13 12 11 12 12 14 13 12
3 4 1 6 9 8 6 8 6 2 3 2 3 20 25 24 26 22 27 25 27 30 31 30 29 25 25 25 23 24 20 16 16 16 18 18 18 20 19 17 15 15 14 13 12 13 14 13 12
2 2 3 6 11 6 5 7 7 5 3 9 4 20 25 26 28 26 29 27 27 28 28 30 29 27 27 25 25 22 21 20 18 17 18 18 18 19 19 16 15 16 15 14 13 12 13 13 13
4 7 9 9 9 8 5 4 3 6 7 11 3 19 22 23 24 27 24 24 26 26 28 29 29 30 30 26 25 25 23 22 18 18 18 18 18 19 18 17 16 17 17 16 14 13 13 13 13
7 10 16 5 5 8 3 1 4 4 5 10 6 14 17 21 21 24 26 29 31 27 26 26 28 31 31 29 26 26 26 23 20 18 18 19 18 19 19 17 15 16 18 18 17 15 14 14 15
6 6 7 6 4 2 2 4 4 3 8 9 3 4 10 15 20 23 24 25 28 30 26 26 27 32 34 32 29 27 27 25 22 23 18 18 19 19 17 15 17 17 18 19 19 18 16 14 17
4 3 5 6 11 7 2 2 6 11 14 7 8 7 10 14 15 19 23 27 25 27 30 29 29 31 34 34 30 28 28 26 26 24 22 19 20 20 19 16 15 18 19 19 19 19 19 16 15
7 2 4 7 9 6 6 5 6 17 11 8 7 5 5 5 9 17 18 23 27 28 28 32 33 33 35 37 32 29 28 28 28 27 25 24 22 21 21 18 17 19 21 20 20 20 19 19 18
4 4 4 4 8 6 6 5 11 24 13 12 12 9 7 9 13 9 16 19 24 26 25 30 33 36 36 38 35 31 29 29 26 31 26 26 26 25 24 22 20 20 23 23 22 22 19 19 18
1 2 3 3 3 5 5 7 9 22 18 13 11 11 14 13 13 10 8 17 22 25 27 26 32 36 38 41 39 37 36 34 31 32 30 27 30 28 26 24 23 24 26 25 24 23 23 20 21
3 3 4 3 5 3 6 6 5 17 23 29 28 28 27 21 16 12 11 12 12 26 27 28 30 33 37 38 40 39 36 37 31 29 32 32 33 29 29 25 27 27 28 28 27 27 25 23 23
4 4 4 3 7 2 7 1 5 4 19 27 30 28 30 27 24 20 14 10 7 7 19 28 33 33 36 38 39 36 40 39 37 35 32 34 35 33 30 29 29 30 31 31 32 31 30 28 25
2 2 2 4 4 2 4 2 3 6 7 18 24 28 29 31 27 22 18 13 10 8 9 17 24 32 35 37 39 41 44 41 39 36 33 31 35 33 35 34 32 33 34 34 34 34 33 33 33
2 5 3 2 2 3 4 4 4 6 10 19 23 24 26 26 28 27 23 18 15 12 9 11 17 21 27 35 36 40 41 42 40 40 37 35 33 34 36 36 35 35 37 39 37 37 37 37 37
5 3 5 4 3 3 3 3 4 5 7 15 24 28 30 31 30 28 25 23 18 15 12 10 11 15 20 26 32 34 36 39 42 42 41 39 38 35 39 38 38 37 39 42 43 42 39 40 39
6 5 3 5 5 3 2 2 1 4 3 7 19 29 30 31 33 33 31 31 26 20 18 16 13 10 17 21 24 30 33 35 39 42 42 41 42 37 41 43 41 41 40 42 46 46 46 44 43
4 3 2 4 2 4 3 1 3 1 2 14 18 24 30 33 30 29 31 31 29 27 24 22 20 17 14 20 24 28 29 32 33 34 41 45 44 41 37 40 41 44 43 43 44 48 49 49 48
3 4 3 3 2 1 3 2 4 4 7 18 23 25 27 28 29 29 29 27 28 27 24 23 23 22 20 16 23 28 29 30 33 33 36 39 41 43 41 41 40 41 45 47 45 44 47 49 49
3 1 3 3 3 3 3 2 3 13 16 16 20 21 24 24 29 30 28 27 24 24 23 20 22 24 24 23 21 18 28 31 31 32 32 33 36 39 42 37 39 44 40 41 41 42 41 46 48
4 3 2 1 2 2 3 2 3 7 9 10 16 18 21 24 27 30 28 24 22 19 19 18 20 20 22 23 24 23 21 28 30 27 30 26 33 36 37 35 38 38 35 34 39 39 42 46 48
1 2 2 3 4 1 2 3 3 4 6 8 11 14 20 24 29 29 29 28 22 17 14 13 13 12 13 16 19 20 17 21 23 23 23 24 26 28 28 29 33 35 31 37 37 36 42 47 46
Wind_Direction
254 253 270 286 48 66 250 257 256 305 341 336 320 160 172 85 158 204 154 167 170 166 167 174 177 174 165 164 152 147 142 143 146 151 155 143 135 136 127 119 125 127 139 133 138 137 130 136 133
240 221 207 146 114 155 254 250 228 256 263 101 37 41 43 64 123 148 153 165 174 169 169 172 179 168 166 160 152 149 147 142 143 143 140 138 130 124 135 135 131 128 134 137 141 138 138 143 141
204 185 170 139 171 200 204 222 214 175 128 103 104 54 37 101 173 152 164 164 174 170 170 171 177 166 164 161 156 150 147 140 132 125 139 125 130 144 141 140 131 127 132 143 142 142 142 141 135
161 151 111 136 221 255 185 201 186 344 349 110 128 56 44 270 173 159 167 169 176 172 172 172 180 168 164 160 158 152 145 139 140 125 135 138 143 144 148 144 132 130 126 137 143 144 147 148 138
163 148 106 258 251 231 205 257 310 306 307 83 150 142 62 131 123 163 168 170 177 175 173 177 179 171 164 159 157 155 143 151 155 143 140 139 153 155 152 148 140 135 132 141 152 150 150 155 147
183 126 96 224 258 292 249 255 303 266 268 157 111 121 141 177 202 173 177 175 180 179 176 179 175 174 165 164 158 162 156 159 162 157 151 155 159 163 160 154 143 143 143 144 148 151 155 159 154
124 81 225 241 263 270 251 256 229 249 236 217 154 122 162 185 182 181 177 175 182 183 180 179 175 175 169 165 162 165 163 156 157 159 167 166 163 168 164 159 154 153 146 154 153 153 157 162 158
164 110 241 256 208 299 353 303 290 251 230 162 173 170 186 187 180 174 173 178 183 185 186 180 177 176 174 169 165 166 166 159 162 168 174 175 162 166 167 166 168 160 154 157 157 159 163 166 158
132 64 229 267 175 197 359 10 356 339 156 143 158 152 168 178 168 170 174 181 185 187 188 185 183 182 181 176 171 174 178 167 170 175 176 175 172 171 174 172 176 165 164 162 164 168 170 168 163
140 144 222 249 357 26 344 357 339 13 41 56 128 143 158 167 167 177 180 182 187 187 191 190 190 187 184 181 177 180 178 183 181 181 181 171 173 179 180 177 176 171 171 173 171 174 179 181 177
163 196 234 1 1 350 318 347 353 18 26 37 293 158 163 171 175 187 193 191 190 193 191 195 192 193 190 189 185 186 181 186 182 182 179 179 179 183 188 188 179 182 184 184 182 180 182 186 190
310 42 11 345 350 8 358 338 339 35 41 359 227 174 171 180 185 190 203 198 195 198 199 199 201 200 196 198 193 194 191 190 187 187 186 186 187 190 193 194 186 193 193 194 193 193 192 194 194
13 334 322 318 311 333 335 355 319 330 44 32 130 177 182 190 198 196 206 213 210 205 204 202 206 205 201 204 203 199 198 196 193 197 198 199 198 198 199 200 200 202 202 203 206 207 208 209 206
310 301 298 310 280 298 301 280 8 42 24 19 45 187 196 201 206 207 210 212 213 214 213 211 213 210 208 208 212 209 206 205 198 209 210 206 207 204 203 210 207 207 207 210 215 223 222 229 223
302 342 334 10 322 244 183 291 188 302 331 334 321 216 229 223 217 221 227 226 220 220 221 220 220 215 211 213 212 215 219 211 207 211 214 214 209 211 211 211 212 214 213 214 217 225 232 235 226
2 50 28 359 29 1 37 322 299 23 13 330 285 297 259 245 251 245 238 237 234 234 231 234 223 215 210 215 218 220 222 221 214 214 224 225 218 212 215 221 221 218 217 215 223 229 232 236 235
15 36 17 338 40 355 49 276 300 332 342 339 339 345 354 311 282 255 247 246 243 246 240 231 225 225 215 215 221 223 225 223 221 216 223 227 226 223 223 223 226 223 222 221 220 221 228 236 239
333 12 352 335 343 357 353 303 304 324 320 302 302 318 337 332 351 319 240 250 253 248 247 239 236 231 226 222 221 223 222 219 226 222 222 228 231 231 230 226 227 223 226 228 223 223 236 232 238
350 18 318 269 343 343 339 315 322 357 18 3 353 360 12 4 335 343 353 248 250 248 244 243 241 239 235 223 221 220 220 218 223 225 229 230 232 232 235 231 228 225 228 227 223 226 232 231 231
29 7 348 296 333 355 352 316 355 47 44 49 45 37 30 32 19 359 6 13 263 256 252 249 248 245 246 241 233 227 225 224 230 232 230 231 236 241 233 234 231 227 229 230 227 227 233 237 237
44 60 350 293 315 7 347 60 30 49 39 37 33 27 30 22 15 19 20 7 2 270 261 262 254 255 250 249 241 234 231 225 225 223 230 232 236 242 241 239 239 232 232 233 233 232 240 247 247
27 271 275 309 19 337 24 204 19 350 17 29 21 15 7 8 6 4 359 7 357 342 288 255 254 252 252 252 246 239 236 230 231 233 233 240 238 239 241 243 243 238 233 238 239 240 244 249 249
300 317 298 252 207 50 5 70 279 10 354 355 357 360 358 360 356 352 347 334 334 337 329 309 264 252 252 251 252 246 241 242 244 237 234 237 240 242 244 244 244 243 238 238 242 242 244 250 254
296 19 42 36 50 42 294 105 339 11 347 341 342 352 352 351 350 346 340 325 313 307 309 309 294 263 248 250 251 251 254 252 246 244 244 239 240 242 244 245 245 246 244 241 243 247 248 249 253
2 45 2 9 15 203 37 48 345 348 2 345 336 343 348 348 346 344 341 329 317 302 291 293 290 277 249 241 248 251 255 255 255 254 253 245 243 238 245 244 246 246 247 247 246 247 251 253 255
10 13 76 173 343 288 325 275 175 31 3 357 357 347 345 344 343 340 341 337 324 311 300 285 281 271 266 248 241 244 245 256 259 263 259 255 255 247 251 252 251 251 252 252 250 249 251 254 256
334 46 330 106 34 13 275 78 305 9 10 1 358 356 349 345 343 341 341 337 329 320 310 298 285 269 265 263 253 245 243 248 250 260 263 260 259 258 254 255 259 258 256 255 252 253 255 255 258
93 263 22 6 32 328 311 334 312 347 344 348 356 352 344 347 356 356 349 341 335 326 319 312 302 282 260 255 252 259 248 246 253 256 254 260 261 262 257 258 266 263 261 256 254 256 260 260 261
8 22 0 297 143 159 305 282 357 341 336 343 347 342 344 347 354 5 3 353 342 330 319 316 306 295 263 251 239 248 258 247 250 255 255 267 264 261 263 268 267 269 268 266 262 254 260 263 263
14 155 94 101 306 267 187 261 1 348 345 338 337 342 351 1 9 10 11 10 0 348 332 329 311 295 273 259 239 229 240 241 242 252 260 268 275 268 273 271 267 272 280 262 267 264 262 265 266